TimeEDT,TemperatureF,Dew PointF,Humidity,Sea Level PressureIn,VisibilityMPH,Wind Direction,Wind SpeedMPH,Gust SpeedMPH,PrecipitationIn,Events,Conditions,WindDirDegrees,DateUTC
12:54 AM,73.0,72.0,96,30.16,7.0,Calm,Calm,-,N/A,,Overcast,0,2013-06-23 04:54:00
1:54 AM,73.0,72.0,96,30.15,8.0,Calm,Calm,-,N/A,,Overcast,0,2013-06-23 05:54:00
2:54 AM,73.0,72.0,96,30.16,9.0,Calm,Calm,-,N/A,,Overcast,0,2013-06-23 06:54:00
3:09 AM,73.4,71.6,94,30.16,7.0,Calm,Calm,-,0.00,Rain,Light Rain,0,2013-06-23 07:09:00
3:37 AM,73.4,71.6,94,30.16,9.0,Calm,Calm,-,0.00,,Overcast,0,2013-06-23 07:37:00
3:54 AM,73.0,72.0,96,30.15,8.0,SSW,3.5,-,0.00,,Mostly Cloudy,200,2013-06-23 07:54:00
4:15 AM,73.4,71.6,94,30.15,6.0,Calm,Calm,-,N/A,,Mostly Cloudy,0,2013-06-23 08:15:00
4:39 AM,73.4,71.6,94,30.15,5.0,Calm,Calm,-,N/A,,Partly Cloudy,0,2013-06-23 08:39:00
4:54 AM,73.0,72.0,96,30.14,7.0,Calm,Calm,-,N/A,,Clear,0,2013-06-23 08:54:00
5:19 AM,73.4,71.6,94,30.15,7.0,Calm,Calm,-,N/A,,Scattered Clouds,0,2013-06-23 09:19:00
5:28 AM,73.4,71.6,94,30.15,7.0,Calm,Calm,-,N/A,,Mostly Cloudy,0,2013-06-23 09:28:00
5:54 AM,73.9,72.0,93,30.16,7.0,Calm,Calm,-,N/A,,Overcast,0,2013-06-23 09:54:00
6:54 AM,73.9,73.0,97,30.17,4.0,Calm,Calm,-,N/A,,Overcast,0,2013-06-23 10:54:00
7:03 AM,75.2,73.4,94,30.18,5.0,Calm,Calm,-,N/A,,Mostly Cloudy,0,2013-06-23 11:03:00
7:10 AM,75.2,73.4,94,30.18,5.0,South,3.5,-,N/A,,Scattered Clouds,180,2013-06-23 11:10:00
7:54 AM,75.0,73.0,94,30.19,6.0,South,3.5,-,N/A,,Clear,180,2013-06-23 11:54:00
8:38 AM,77.0,73.4,89,30.20,7.0,SSE,5.8,-,N/A,,Partly Cloudy,160,2013-06-23 12:38:00
8:54 AM,77.0,73.0,88,30.20,9.0,South,4.6,-,N/A,,Partly Cloudy,190,2013-06-23 12:54:00
9:54 AM,80.1,73.0,79,30.20,9.0,SW,8.1,-,N/A,,Partly Cloudy,230,2013-06-23 13:54:00
10:54 AM,81.0,72.0,74,30.21,9.0,WSW,5.8,-,N/A,,Partly Cloudy,250,2013-06-23 14:54:00
11:51 AM,82.4,71.6,70,30.20,10.0,West,5.8,-,N/A,,Overcast,270,2013-06-23 15:51:00
11:54 AM,82.9,71.1,67,30.20,10.0,West,4.6,-,N/A,,Mostly Cloudy,260,2013-06-23 15:54:00
12:54 PM,86.0,68.0,55,30.19,10.0,WSW,3.5,-,N/A,,Partly Cloudy,240,2013-06-23 16:54:00
1:54 PM,88.0,68.0,51,30.17,10.0,Calm,Calm,-,N/A,,Partly Cloudy,0,2013-06-23 17:54:00
2:54 PM,88.0,66.9,49,30.15,10.0,Variable,3.5,-,N/A,,Partly Cloudy,0,2013-06-23 18:54:00
3:54 PM,90.0,66.9,46,30.13,10.0,SSE,6.9,-,N/A,,Partly Cloudy,160,2013-06-23 19:54:00
4:54 PM,90.0,71.1,54,30.12,10.0,SE,13.8,-,N/A,,Clear,140,2013-06-23 20:54:00
5:54 PM,84.9,71.1,63,30.12,10.0,SE,9.2,-,N/A,,Clear,140,2013-06-23 21:54:00
6:54 PM,82.0,70.0,67,30.13,10.0,SE,6.9,-,N/A,,Clear,140,2013-06-23 22:54:00
7:54 PM,80.1,72.0,76,30.16,10.0,North,-9999.0,-,N/A,,Partly Cloudy,0,2013-06-23 23:54:00
8:54 PM,78.1,71.1,79,30.17,10.0,SSE,6.9,-,N/A,,Clear,150,2013-06-24 00:54:00
9:19 PM,78.8,71.6,78,30.19,10.0,Calm,Calm,-,N/A,Thunderstorm,Thunderstorm,0,2013-06-24 01:19:00
9:51 PM,78.8,71.6,78,30.20,10.0,Calm,Calm,-,N/A,,Overcast,0,2013-06-24 01:51:00
9:54 PM,78.1,72.0,81,30.20,10.0,Calm,Calm,-,N/A,,Overcast,0,2013-06-24 01:54:00
10:49 PM,75.2,71.6,89,30.19,10.0,Calm,Calm,-,N/A,,Scattered Clouds,0,2013-06-24 02:49:00
10:54 PM,75.9,72.0,87,30.19,10.0,South,3.5,-,N/A,,Scattered Clouds,190,2013-06-24 02:54:00
11:11 PM,75.2,71.6,89,30.19,10.0,South,4.6,-,N/A,,Mostly Cloudy,190,2013-06-24 03:11:00
11:27 PM,75.2,71.6,89,30.18,10.0,Variable,4.6,-,N/A,,Scattered Clouds,0,2013-06-24 03:27:00
11:54 PM,75.0,72.0,90,30.17,10.0,South,5.8,-,N/A,,Clear,190,2013-06-24 03:54:00